[[{"header":{"parameterUnit":"m.s-1","parameterCategory":1,"la1":30.2991,"la2":30.254,"lo1":-89.0895,"lo2":-89.0444,"dy":0.0017,"dx":0.0017,"nx":28,"ny":28,"refTime":"2024-07-25T03:00:00:Z","depth":0,"parameterNumber":2,"parameterNumberName":"U-component_of_WINDS"},"data":[0,0,0,0,0,0,0,0,0,0,0,0,0,0,0,0,0,0,0,0,0,0,0,0,0,0,0,0,0,0,0,0,0,0,0,0,0,0,0,0,0,0,0,0,0,0,0,0,0,0,0,0,0,0,0,0,0,0,-0.8124,-0.8123,0,-0.8005,-0.8003,-0.8002,-0.7869,-0.7867,-0.7865,-0.7863,-0.774,-0.7739,-0.7737,0,0,0,0,0,0,0,0,0,0,0,0,0,-0.8237,-0.8236,-0.8124,-0.8123,-0.8121,-0.8005,-0.8003,-0.8002,-0.7869,-0.7867,-0.7864,-0.7862,-0.7741,-0.7739,-0.7737,0,0,0,0,0,0,0,0,0,0,0,0,0,-0.816,-0.8235,-0.8124,-0.8041,-0.8032,-0.8005,-0.8003,-0.8001,-0.787,-0.7867,-0.7864,-0.7861,-0.7741,-0.7739,-0.7737,-0.7782,0,0,-0.773,-0.7729,0,0,0,0,0,0,0,0,-0.8165,-0.8156,-0.8055,-0.8047,-0.8037,-0.7949,-0.7998,-0.7928,-0.787,-0.7931,-0.7863,-0.786,-0.7812,-0.7804,-0.7788,-0.7776,-0.7771,-0.773,-0.7729,-0.7728,-0.7727,0,0,0,0,0,0,0,-0.817,-0.816,-0.8077,-0.8053,-0.8043,-0.801,-0.7995,-0.7984,-0.789,-0.7926,-0.7916,-0.7904,-0.7806,-0.779,-0.7784,-0.7769,-0.773,-0.7728,-0.7727,-0.7726,-0.7789,-0.7792,0,0,0,0,0,0,-0.8188,-0.8166,-0.808,-0.8073,-0.8095,-0.801,-0.7994,-0.798,-0.7889,-0.7873,-0.7906,-0.7898,-0.7795,-0.7787,-0.7779,-0.7826,-0.7728,-0.7726,-0.7725,-0.7786,-0.779,-0.7793,0,0,0,0,0,0,-0.8191,-0.8182,-0.8085,-0.8117,-0.8102,-0.8011,-0.7996,-0.7979,-0.7963,-0.7874,-0.7857,-0.7907,-0.7793,-0.7782,-0.7782,-0.782,-0.7725,-0.7723,-0.7783,-0.7787,-0.7792,-0.792,0,0,0,0,0,0,-0.8195,-0.8184,-0.82,-0.8118,-0.8101,-0.8091,-0.7999,-0.7979,-0.7959,-0.7947,-0.787,-0.7855,-0.779,-0.7787,-0.778,-0.7815,-0.7721,-0.7779,-0.7785,-0.779,-0.7912,-0.7928,-0.7942,0,0,0,0,0,-0.8199,-0.824,-0.8201,-0.8192,-0.8119,-0.8093,-0.8083,-0.8008,-0.7963,-0.7978,-0.7922,-0.7857,-0.7817,-0.7788,-0.778,-0.7814,-0.7776,-0.7783,-0.779,-0.7905,-0.7925,-0.7942,0,0,0,0,0,0,-0.8328,-0.8228,-0.8183,-0.8199,-0.8156,-0.8071,-0.8088,-0.8031,-0.7999,-0.7989,-0.7896,-0.788,-0.7892,-0.7853,-0.7822,-0.7853,-0.7787,-0.7793,-0.7878,-0.7896,-0.7911,-0.792,-0.7719,0,0,0,0,0,-0.8359,-0.8346,-0.8259,-0.8282,-0.8262,-0.818,-0.8166,-0.8111,-0.8062,-0.8043,-0.7986,-0.7942,-0.7918,-0.7905,-0.7879,-0.7906,-0.7887,-0.7926,-0.7941,-0.7954,-0.796,-0.7971,-0.7987,-0.7815,-0.7815,-0.7815,0,0,-0.8421,-0.8365,-0.8362,-0.8306,-0.8266,-0.8256,-0.8165,-0.8157,-0.8148,-0.8042,-0.8038,-0.7996,-0.794,-0.7954,-0.7957,-0.7922,-0.8003,-0.7963,-0.7974,-0.7972,-0.798,-0.7996,-0.8011,-0.782,-0.7819,-0.7818,0,0,-0.8529,-0.8485,-0.8499,-0.8461,-0.8402,-0.8347,-0.8351,-0.8274,-0.8242,-0.8238,-0.8158,-0.8146,-0.8108,-0.8071,-0.8048,-0.8144,-0.8084,-0.8138,-0.8217,-0.8229,-0.8243,-0.8254,-0.8289,-0.8302,-0.8144,-0.8145,-0.8145,0,-0.8613,-0.8594,-0.8513,-0.8511,-0.8489,-0.8393,-0.8406,-0.8373,-0.8309,-0.8296,-0.8257,-0.8209,-0.8164,-0.8168,-0.8192,-0.8176,-0.8177,-0.8146,-0.8248,-0.8258,-0.8268,-0.8299,-0.8312,-0.8152,-0.8151,-0.815,-0.8149,0,-0.8701,-0.8689,-0.8708,-0.8648,-0.8628,-0.8634,-0.8554,-0.8544,-0.8492,-0.8441,-0.8438,-0.8381,-0.8342,-0.834,-0.8288,-0.8337,-0.8317,-0.8265,-0.8196,-0.8293,-0.8321,-0.8332,-0.8162,-0.8159,-0.8157,-0.8155,0,0,-0.8885,-0.8782,-0.879,-0.8763,-0.8691,-0.868,-0.8682,-0.8644,-0.8637,-0.8596,-0.8595,-0.8567,-0.8518,-0.8492,-0.8435,-0.8447,-0.8527,-0.8392,-0.839,-0.8419,-0.8577,-0.8616,-0.8631,-0.8487,-0.8489,-0.849,-0.8581,0,-0.898,-0.8977,-0.8905,-0.8922,-0.891,-0.882,-0.8821,-0.8778,-0.8731,-0.8714,-0.8661,-0.8643,-0.858,-0.8563,-0.8571,-0.8516,-0.8557,-0.8508,-0.8484,-0.8485,-0.8501,-0.8646,-0.8687,-0.8776,-0.8592,-0.8593,-0.8595,0,-0.9089,-0.9056,-0.9072,-0.9001,-0.8993,-0.8996,-0.8956,-0.8941,-0.889,-0.8855,-0.8827,-0.8763,-0.876,-0.8697,-0.8692,-0.866,-0.8647,-0.8618,-0.862,-0.8614,-0.8545,-0.8643,-0.8802,-0.8815,-0.8611,-0.861,-0.8609,0,-0.9222,-0.9181,-0.9185,-0.9164,-0.9081,-0.9085,-0.9051,-0.8997,-0.8979,-0.8944,-0.8932,-0.8898,-0.8879,-0.8854,-0.8783,-0.8744,-0.8786,-0.8717,-0.8757,-0.8759,-0.8769,-0.8769,-0.8927,-0.8762,-0.8762,-0.8762,-0.8761,0,-0.9334,-0.9348,-0.9243,-0.9246,-0.9259,-0.9176,-0.9191,-0.9148,-0.9101,-0.9094,-0.9014,-0.9009,-0.8917,-0.8901,-0.8846,-0.885,-0.8842,-0.8814,-0.8799,-0.8821,-0.8824,-0.881,-0.8801,-0.8765,-0.8764,-0.8764,-0.8763,0,-0.9484,-0.9414,-0.9413,-0.9335,-0.9316,-0.9329,-0.9262,-0.9261,-0.921,-0.9202,-0.9195,-0.9115,-0.9093,-0.902,-0.898,-0.8943,-0.8964,-0.8936,-0.8981,-0.8971,-0.9015,-0.9012,-0.9169,-0.9185,-0.9011,-0.9013,-0.9014,0,-0.956,-0.9568,-0.9491,-0.9481,-0.945,-0.9434,-0.9416,-0.9336,-0.932,-0.9264,-0.927,-0.9242,-0.9215,-0.9184,-0.9122,-0.9091,-0.9061,-0.9118,-0.9056,-0.9078,-0.9062,-0.9062,-0.9062,-0.9132,-0.9134,-0.9136,-0.9137,0,-0.9702,-0.9668,-0.9644,-0.961,-0.959,-0.9559,-0.9523,-0.9519,-0.943,-0.9416,-0.9393,-0.9372,-0.9332,-0.9305,-0.9265,-0.9229,-0.9169,-0.9158,-0.9165,-0.9187,-0.9213,-0.9199,-0.9017,-0.9154,-0.9153,-0.9151,-0.915,-0.915,-0.9816,-0.9819,-0.9766,-0.9743,-0.9708,-0.9677,-0.9672,-0.9621,-0.96,-0.9561,-0.9515,-0.9498,-0.9448,-0.9387,-0.9356,-0.9341,-0.9308,-0.9319,-0.9322,-0.9326,-0.9336,-0.9217,-0.9334,-0.9333,-0.9333,-0.9332,-0.9332,0,-0.9954,-0.9915,-0.9895,-0.9848,-0.983,-0.9776,-0.9734,-0.9722,-0.9708,-0.9666,-0.9642,-0.9615,-0.9589,-0.9526,-0.9494,-0.9494,-0.9466,-0.9489,-0.9487,-0.948,-0.9367,-0.9364,-0.9512,-0.9512,-0.9512,-0.9512,-0.9512,-0.9512,-1.0023,-1.0026,-0.9986,-0.997,-0.9931,-0.9914,-0.9894,-0.9865,-0.9832,-0.9806,-0.9784,-0.9743,-0.9693,-0.9657,-0.9631,-0.9613,-0.9604,-0.9636,-0.9609,-0.9505,-0.9488,-0.9471,-0.9468,-0.9635,-0.9635,-0.9723,-0.9724,-0.9724]},{"header":{"parameterUnit":"m.s-1","parameterCategory":1,"la1":30.2991,"la2":30.254,"lo1":-89.0895,"lo2":-89.0444,"dy":0.0017,"dx":0.0017,"nx":28,"ny":28,"refTime":"2024-07-25T03:00:00:Z","depth":0,"parameterNumber":3,"parameterNumberName":"V-component_of_WINDS"},"data":[0,0,0,0,0,0,0,0,0,0,0,0,0,0,0,0,0,0,0,0,0,0,0,0,0,0,0,0,0,0,0,0,0,0,0,0,0,0,0,0,0,0,0,0,0,0,0,0,0,0,0,0,0,0,0,0,0,0,2.1713,2.1713,0,2.1716,2.1716,2.1717,2.1769,2.1771,2.1772,2.1773,2.1774,2.1772,2.1771,0,0,0,0,0,0,0,0,0,0,0,0,0,2.1748,2.1747,2.1713,2.1713,2.1713,2.1716,2.1716,2.1717,2.1769,2.1771,2.1772,2.1774,2.1774,2.1773,2.1771,0,0,0,0,0,0,0,0,0,0,0,0,0,2.174,2.1747,2.1713,2.1739,2.1742,2.1716,2.1716,2.1717,2.1769,2.1771,2.1773,2.1775,2.1774,2.1773,2.1771,2.1719,0,0,2.1765,2.1764,0,0,0,0,0,0,0,0,2.174,2.1739,2.1735,2.1738,2.174,2.1745,2.1729,2.1717,2.1768,2.1758,2.1773,2.1776,2.1762,2.1761,2.1757,2.1719,2.1719,2.1765,2.1764,2.1763,2.1762,0,0,0,0,0,0,0,2.1741,2.1739,2.1714,2.1735,2.1738,2.175,2.1752,2.1727,2.1749,2.1759,2.1763,2.1763,2.1764,2.1759,2.1758,2.1719,2.1765,2.1763,2.1762,2.1761,2.1637,2.1635,0,0,0,0,0,0,2.1738,2.1739,2.1714,2.1714,2.1746,2.1748,2.1749,2.1741,2.1749,2.1752,2.1762,2.1766,2.1761,2.176,2.1758,2.1697,2.1763,2.1761,2.176,2.1639,2.1636,2.1634,0,0,0,0,0,0,2.1739,2.1735,2.1714,2.1728,2.1726,2.1745,2.1736,2.174,2.1736,2.1751,2.1755,2.1753,2.1763,2.1761,2.1728,2.1697,2.176,2.1759,2.1642,2.1638,2.1635,2.1574,0,0,0,0,0,0,2.174,2.1735,2.1716,2.1727,2.1725,2.1684,2.1734,2.1739,2.1733,2.1738,2.1744,2.1747,2.1764,2.1731,2.1726,2.1696,2.1757,2.1644,2.164,2.1636,2.1579,2.1569,2.1561,0,0,0,0,0,2.1741,2.1698,2.1715,2.1712,2.1702,2.1682,2.1681,2.1704,2.173,2.171,2.172,2.1746,2.1702,2.1727,2.1722,2.1691,2.1646,2.1641,2.1637,2.1583,2.1571,2.1561,0,0,0,0,0,0,2.1682,2.17,2.1719,2.1679,2.1679,2.1691,2.1667,2.169,2.1682,2.1687,2.1714,2.1715,2.1678,2.1682,2.1709,2.1641,2.1679,2.1673,2.1639,2.1628,2.1619,2.1618,2.1756,0,0,0,0,0,2.1665,2.1649,2.1665,2.1628,2.1627,2.1647,2.164,2.1657,2.1658,2.1658,2.1665,2.1664,2.165,2.164,2.1628,2.158,2.1582,2.1557,2.1548,2.154,2.1534,2.1508,2.1497,2.1618,2.1618,2.1618,0,0,2.1628,2.1636,2.1624,2.1616,2.1618,2.16,2.1647,2.1626,2.1612,2.1654,2.1624,2.1629,2.163,2.159,2.1572,2.1591,2.1501,2.1534,2.1528,2.1525,2.1502,2.1491,2.148,2.1615,2.1615,2.1616,0,0,2.1551,2.1556,2.1526,2.1527,2.1531,2.1545,2.1537,2.1547,2.1552,2.1523,2.1554,2.1538,2.1513,2.1512,2.1508,2.1433,2.1456,2.1428,2.138,2.1355,2.1345,2.1337,2.1308,2.1298,2.1422,2.1422,2.1422,0,2.1505,2.1479,2.1507,2.1484,2.1479,2.1519,2.1487,2.1487,2.1485,2.1481,2.1503,2.1473,2.1476,2.1436,2.1417,2.1414,2.1405,2.1426,2.1345,2.1336,2.1329,2.1302,2.1292,2.1419,2.1419,2.142,2.142,0,2.1421,2.1404,2.1378,2.1377,2.137,2.1343,2.1365,2.1354,2.1373,2.1384,2.1353,2.1359,2.1348,2.134,2.1358,2.1302,2.1314,2.134,2.1378,2.1313,2.1289,2.1279,2.1414,2.1415,2.1416,2.1417,0,0,2.1306,2.1321,2.1311,2.1311,2.1318,2.1304,2.1279,2.127,2.126,2.1258,2.1236,2.1215,2.1239,2.1235,2.1253,2.1231,2.1169,2.126,2.126,2.1241,2.1107,2.1086,2.1073,2.1186,2.1184,2.1183,2.1106,0,2.1231,2.1188,2.1213,2.1167,2.115,2.1188,2.1166,2.1167,2.1177,2.1164,2.1175,2.1159,2.1193,2.119,2.1171,2.1181,2.1142,2.1187,2.1164,2.1163,2.116,2.1061,2.1038,2.0966,2.1097,2.1095,2.1094,0,2.1137,2.1132,2.1084,2.1095,2.1089,2.1068,2.1062,2.1049,2.1052,2.1061,2.1056,2.108,2.1054,2.1094,2.1059,2.1089,2.1081,2.1085,2.1083,2.108,2.1123,2.1053,2.0944,2.0932,2.1079,2.1081,2.1082,0,2.1055,2.1037,2.1006,2.1005,2.1017,2.1001,2.1005,2.101,2.1003,2.0998,2.0993,2.0984,2.0979,2.0971,2.0991,2.1019,2.0953,2.0995,2.0958,2.0957,2.094,2.0941,2.0826,2.0939,2.0939,2.0939,2.094,0,2.0967,2.0936,2.0969,2.095,2.0916,2.0945,2.091,2.0918,2.0922,2.0904,2.0937,2.0919,2.0948,2.0933,2.0949,2.0917,2.0914,2.092,2.0924,2.0916,2.0915,2.0909,2.0914,2.0937,2.0937,2.0938,2.0938,0,2.0869,2.089,2.0859,2.0873,2.0876,2.085,2.0862,2.0845,2.0858,2.0835,2.0831,2.0852,2.0836,2.0856,2.0842,2.0852,2.0808,2.0821,2.0807,2.081,2.0772,2.0774,2.0648,2.0632,2.0757,2.0755,2.0754,0,2.081,2.0787,2.08,2.0791,2.0794,2.0779,2.0772,2.08,2.0791,2.0793,2.0775,2.0762,2.0753,2.0726,2.0738,2.0728,2.0739,2.0696,2.0737,2.073,2.0736,2.0736,2.0734,2.0686,2.0685,2.0683,2.0682,0,2.0704,2.0716,2.0706,2.0699,2.0691,2.0687,2.0685,2.0676,2.0705,2.0694,2.0678,2.0672,2.0658,2.0644,2.0637,2.0641,2.0665,2.067,2.066,2.065,2.0643,2.0645,2.0781,2.0672,2.0673,2.0674,2.0674,2.0675,2.0622,2.0604,2.061,2.0597,2.0599,2.0597,2.0581,2.0593,2.0582,2.0573,2.059,2.057,2.0574,2.0567,2.0568,2.0552,2.0571,2.0557,2.0554,2.0549,2.0543,2.0647,2.0551,2.0551,2.0552,2.0552,2.0552,0,2.0516,2.0522,2.0511,2.0508,2.0498,2.0525,2.0525,2.0514,2.0497,2.0498,2.0489,2.0472,2.0459,2.0472,2.0461,2.0446,2.0457,2.0442,2.0442,2.0442,2.0528,2.0536,2.0433,2.0433,2.0433,2.0433,2.0433,2.0433,2.0459,2.0429,2.0441,2.0412,2.0419,2.04,2.0398,2.0396,2.0397,2.0376,2.0366,2.0375,2.0381,2.0371,2.0361,2.0365,2.0358,2.0339,2.0346,2.0425,2.0437,2.0448,2.0455,2.0338,2.0337,2.0262,2.0262,2.0261]}]]